Flag for Brazil Weather past 2 weeks in Santa María, Rio Grande do Sul, Brazil

Now
73 °F

Clear.


Feels Like: 72 °F
Forecast: 69 / 83 °F
Wind: 2 mph from Southwest

Location: Porto Alegre Aero-Porto

Current Time: Mar 6, 2015 at 3:25:52 AM

Latest Report: Mar 6, 2015 at 3:00 AM


Visibility: 10 mi

Pressure: 29.92 "Hg

Humidity: 89%

Dew point: 70 °F

Location of Santa MaríaLocation

Historic Weather in Santa María — Graph

°F

Santa María temperature yesterday

Maximum temperature yesterday: 82 °F (at 2:00 PM)
Minimum temperature yesterday: 73 °F (at 6:00 AM)
Average temperature yesterday: 78 °F

Past Weeks' High & Low Weather Summary

 TemperatureHumidityPressure
High93 °F (Mar 3, 1:00 PM)100% (Feb 20, 2:00 AM)30.12 "Hg (Feb 20, 2:00 AM)
Low32 °F (Feb 24, 8:00 AM)40% (Mar 1, 3:00 PM)29.59 "Hg (Feb 19, 4:00 PM)
Average77 °F80%29.93 "Hg
* Reported Feb 19 3:00 AM — Mar 6 2:00 AM, Santa María, Weather by CustomWeather, © 2015

Note: Actual official high and low records may vary slightly from our data, if they occured in-between our weather recording intervals... More about our weather records

Advertising

Santa María weather history for previous 24 hours

 ConditionsComfort  
Time TempWeatherWind HumidityBarometerVisibility
2:00 AM
Fri, Mar 6
73 °FClear.2 mph89%29.92 "Hg10 mi
1:00 AM73 °FClear.3 mph89%29.92 "Hg10 mi
12:00 AM75 °FClear.6 mph83%29.95 "Hg10 mi
11:00 PM
Thu, Mar 5
75 °FClear.6 mph89%29.95 "Hg10 mi
10:00 PM77 °FClear.7 mph89%29.95 "Hg10 mi
9:00 PM79 °FClear.7 mph84%29.92 "Hg10 mi
8:00 PM79 °FPassing clouds.8 mph79%29.89 "HgN/A
7:00 PM81 °FPassing clouds.8 mph74%29.86 "HgN/A
6:00 PM81 °FPassing clouds.12 mph79%29.86 "HgN/A
5:00 PM82 °FScattered clouds.12 mph79%29.86 "HgN/A
4:00 PM82 °FPartly sunny.9 mph79%29.86 "HgN/A
3:00 PM81 °FLight rain. Partly sunny.5 mph89%29.86 "Hg6 mi
2:00 PM82 °FPartly sunny.6 mph84%29.89 "HgN/A
1:00 PM81 °FLight rain. Partly sunny.12 mph84%29.92 "Hg5 mi
12:00 PM81 °FPartly sunny.12 mph84%29.92 "HgN/A
9:00 AM77 °FBroken clouds.8 mph94%29.92 "HgN/A
8:45 AM77 °FBroken clouds.7 mph94%29.92 "HgN/A
8:00 AM75 °FBroken clouds.6 mph100%29.89 "Hg4 mi
6:00 AM73 °FPassing clouds.6 mph100%29.86 "HgN/A
5:00 AM75 °FClear.3 mph94%29.98 "Hg10 mi
4:00 AM75 °FClear.2 mph94%29.86 "Hg10 mi
3:00 AM75 °FClear.3 mph100%29.86 "Hg10 mi
Weather by CustomWeather, © 2015

See weather overviewHow to use our weather pages